[[{"header":{"parameterUnit":"m.s-1","parameterCategory":1,"la1":30.2992,"la2":30.254,"lo1":-89.0895,"lo2":-89.0443,"dy":0.0025,"dx":0.0025,"nx":19,"ny":19,"refTime":"2026-05-13T21:00:00:Z","depth":0,"parameterNumber":2,"parameterNumberName":"U-component_of_WINDS"},"data":[0,0,0,1.0826,1.0828,1.0923,1.0923,1.104,1.1041,0,0,0,0,0,0,0,0,0,0,0,1.0793,1.0794,1.0826,1.0828,1.0923,1.0923,1.104,1.1041,0,0,0,0,0,0,0,0,0,0,0,1.0793,1.0794,1.0795,1.0828,1.0922,1.0923,1.1039,1.097,0,0,0,0,0,0,0,0,0,0,1.0878,1.0844,1.0794,1.0795,1.0829,1.0922,1.0923,1.0966,1.0974,1.0994,0,1.101,0,1.1027,1.1048,1.1049,0,0,0,1.0831,1.0838,1.0867,1.0795,1.0829,1.0922,1.0881,1.0971,1.0979,1.1004,1.1012,1.1017,1.1029,1.1049,1.1049,1.1155,1.1156,0,0,1.0826,1.0808,1.0861,1.0873,1.0856,1.0878,1.0884,1.0976,1.0983,1.1013,1.1019,1.1031,1.105,1.105,1.1155,1.1156,0,0,0,1.0809,1.0805,1.0832,1.0868,1.0885,1.088,1.0887,1.0979,1.099,1.1021,1.1033,1.105,1.1052,1.1155,1.1155,1.1156,0,0,0,1.0806,1.0795,1.0829,1.082,1.0883,1.0933,1.0888,1.0983,1.0994,1.1032,1.105,1.1053,1.1154,1.1155,1.1155,1.1159,0,0,0,1.0789,1.0793,1.0805,1.0818,1.0859,1.0932,1.0948,1.0986,1.1001,1.1049,1.1053,1.1154,1.1155,1.1154,1.1157,1.1182,0,0,0,1.0766,1.0803,1.0805,1.0851,1.0858,1.0931,1.0947,1.1003,1.1043,1.1051,1.1154,1.1155,1.1154,1.1157,1.1181,1.12,1.1206,0,0,1.0803,1.0807,1.0836,1.084,1.0909,1.0918,1.0988,1.1041,1.1062,1.1123,1.1126,1.1155,1.1157,1.1182,1.1245,1.125,0,0,0,1.0842,1.0862,1.0885,1.0922,1.0964,1.1002,1.1046,1.1067,1.112,1.109,1.1171,1.1173,1.1188,1.1198,1.1202,1.1217,1.1159,1.1159,1.1159,1.0869,1.0894,1.0944,1.0981,1.1018,1.1065,1.1098,1.1134,1.1148,1.1167,1.1185,1.122,1.1231,1.1234,1.1249,1.1197,1.1197,1.1197,1.1197,1.0926,1.096,1.0979,1.1035,1.1062,1.1109,1.1158,1.1166,1.1215,1.1208,1.1223,1.1212,1.1238,1.1253,1.1197,1.1197,1.1197,1.1197,1.1197,1.0947,1.0968,1.0992,1.1051,1.1094,1.1131,1.1178,1.1201,1.1223,1.1238,1.126,1.126,1.1264,1.1247,1.1247,1.1247,1.1247,1.1247,1.1248,1.0958,1.0986,1.1022,1.1072,1.1101,1.1142,1.1192,1.1221,1.1259,1.1272,1.1273,1.1286,1.1236,1.1223,1.125,1.1249,1.1249,1.1249,1.1249,1.1007,1.1,1.1056,1.1085,1.1147,1.1189,1.1219,1.1277,1.1305,1.1327,1.1338,1.1297,1.1303,1.13,1.129,1.1332,1.1332,1.1332,1.1332,1.1024,1.103,1.1093,1.1138,1.1185,1.1218,1.1283,1.1323,1.1364,1.1383,1.138,1.1369,1.1365,1.1373,1.1368,1.1359,1.1418,1.1418,1.1418,1.1056,1.1068,1.1117,1.1157,1.1208,1.1251,1.1313,1.1365,1.141,1.1422,1.1399,1.1395,1.1377,1.1369,1.1379,1.1371,1.1354,0,0]},{"header":{"parameterUnit":"m.s-1","parameterCategory":1,"la1":30.2992,"la2":30.254,"lo1":-89.0895,"lo2":-89.0443,"dy":0.0025,"dx":0.0025,"nx":19,"ny":19,"refTime":"2026-05-13T21:00:00:Z","depth":0,"parameterNumber":3,"parameterNumberName":"V-component_of_WINDS"},"data":[0,0,0,-2.6447,-2.6447,-2.6427,-2.6427,-2.6391,-2.639,0,0,0,0,0,0,0,0,0,0,0,-2.6445,-2.6444,-2.6447,-2.6446,-2.6427,-2.6427,-2.6391,-2.639,0,0,0,0,0,0,0,0,0,0,0,-2.6445,-2.6444,-2.6444,-2.6446,-2.6427,-2.6427,-2.6391,-2.641,0,0,0,0,0,0,0,0,0,0,-2.643,-2.642,-2.6444,-2.6444,-2.6446,-2.6427,-2.6427,-2.6411,-2.6409,-2.6394,0,-2.6379,0,-2.6384,-2.6387,-2.6387,0,0,0,-2.6452,-2.6421,-2.6424,-2.6443,-2.6446,-2.6427,-2.6438,-2.641,-2.6407,-2.6391,-2.6378,-2.6377,-2.6384,-2.6387,-2.6387,-2.6289,-2.6289,0,0,-2.6453,-2.6436,-2.6426,-2.6422,-2.6424,-2.6438,-2.6437,-2.6408,-2.6393,-2.6378,-2.6377,-2.6383,-2.6387,-2.6386,-2.629,-2.6289,0,0,0,-2.6452,-2.6437,-2.644,-2.6423,-2.6421,-2.6437,-2.6436,-2.6394,-2.6397,-2.6377,-2.6383,-2.6386,-2.6386,-2.6291,-2.629,-2.6241,0,0,0,-2.6453,-2.6436,-2.6441,-2.643,-2.6421,-2.6407,-2.6422,-2.6399,-2.6397,-2.6383,-2.6386,-2.6385,-2.6292,-2.629,-2.6244,-2.6221,0,0,0,-2.6448,-2.6436,-2.6431,-2.6429,-2.6421,-2.6408,-2.6409,-2.6399,-2.64,-2.6387,-2.6385,-2.6292,-2.6291,-2.6247,-2.6225,-2.6194,0,0,0,-2.6438,-2.6383,-2.6429,-2.6371,-2.6421,-2.6378,-2.641,-2.6378,-2.6361,-2.6386,-2.6292,-2.629,-2.6248,-2.6228,-2.6197,-2.6167,-2.6152,0,0,-2.6359,-2.6373,-2.634,-2.6381,-2.6327,-2.6382,-2.6321,-2.6319,-2.6332,-2.6303,-2.6301,-2.6243,-2.6226,-2.6195,-2.607,-2.6058,0,0,0,-2.631,-2.6287,-2.6276,-2.6261,-2.6261,-2.6261,-2.6271,-2.6272,-2.6249,-2.6314,-2.6223,-2.6213,-2.6195,-2.6182,-2.6172,-2.616,-2.6282,-2.6282,-2.6283,-2.6173,-2.6197,-2.6147,-2.617,-2.6154,-2.617,-2.6161,-2.6165,-2.6187,-2.6167,-2.6158,-2.608,-2.6063,-2.6056,-2.6043,-2.6142,-2.6142,-2.6142,-2.6142,-2.6063,-2.6036,-2.6076,-2.6041,-2.6067,-2.6038,-2.6053,-2.6072,-2.605,-2.6086,-2.6072,-2.6112,-2.6042,-2.6033,-2.6138,-2.6139,-2.6139,-2.614,-2.614,-2.5978,-2.597,-2.5974,-2.596,-2.5947,-2.5971,-2.5951,-2.5974,-2.5995,-2.5981,-2.5978,-2.5979,-2.5985,-2.5978,-2.5978,-2.5977,-2.5977,-2.5977,-2.5977,-2.5889,-2.5896,-2.5877,-2.5878,-2.5875,-2.5874,-2.5893,-2.5891,-2.5895,-2.5913,-2.5913,-2.5942,-2.603,-2.6054,-2.5973,-2.5973,-2.5974,-2.5974,-2.5975,-2.5771,-2.5804,-2.5773,-2.5771,-2.5778,-2.5767,-2.5798,-2.5793,-2.5795,-2.5785,-2.5819,-2.5879,-2.5894,-2.5902,-2.5922,-2.5811,-2.5811,-2.5811,-2.5811,-2.5702,-2.5713,-2.5692,-2.5688,-2.5686,-2.5714,-2.5683,-2.57,-2.5721,-2.5725,-2.5744,-2.5772,-2.5779,-2.579,-2.58,-2.5819,-2.5685,-2.5685,-2.5685,-2.5633,-2.5647,-2.5615,-2.564,-2.5649,-2.5656,-2.563,-2.5625,-2.5656,-2.568,-2.5729,-2.5735,-2.5779,-2.5792,-2.5817,-2.5833,-2.5868,0,0]}]]